Location: Brown Observing Site
(43.4354°N, 116.3366°W)
Time: 03:55:31
(UTC-07:00)

Envisat - Pass Details

Date: 25 October 2019
Orbit: 764 x 766 km, 98.1° (Epoch: 12 November)

Event Time Altitude Azimuth Distance (km) Brightness Sun altitude
Rises 20:03:37 0° 175° (S) 3,216 6.2 -14.6°
Reaches altitude 10° 20:05:56 10° 179° (S) 2,294 5.5 -15.0°
Maximum altitude 20:10:56 60° 259° (W) 873 3.6 -15.9°
Drops below altitude 10° 20:15:58 10° 340° (NNW) 2,310 5.7 -16.8°
Sets 20:18:19 0° 344° (NNW) 3,240 6.4 -17.3°
